Grand Forks Air Force Base, ND

8:12 AM CST on February 07, 2016 (GMT -0600)
Grand Forks International

Weather History for KGFK - March, 2014

Change the Weather History Date:

Tuesday, March 11, 2014

  Actual Average Record
Temperature  
Mean Temperature 24 °F 22 °F  
Max Temperature 34 °F 31 °F 56 °F (1981)
Min Temperature 13 °F 14 °F -33 °F (1948)
Degree Days  
Heating Degree Days 41 43  
Month to date heating degree days 609 497  
Since 1 July heating degree days 8504 7647  
Cooling Degree Days 0 0  
Month to date cooling degree days 0 0  
Year to date cooling degree days 0 0  
Moisture  
Dew Point 18 °F    
Average Humidity 79    
Maximum Humidity 89    
Minimum Humidity 68    
Precipitation  
Precipitation T in 0.04 in 0.38 in (1976)
Month to date precipitation 0.14 0.33  
Year to date precipitation 1.21 1.40  
Snow  
Snow T in 0.30 in - ()
Month to date snowfall 1.1 3.3  
Since 1 July snowfall 46.8 40.5  
Snow Depth 9.00 in    
Sea Level Pressure  
Sea Level Pressure 30.05 in    
Wind  
Wind Speed 14 mph (North)    
Max Wind Speed 23 mph    
Max Gust Speed 28 mph    
Visibility 10 miles    
Events Snow    
T = Trace of Precipitation, MM = Missing Value Source: NWS Daily Summary

Daily Weather History Graph

Daily Weather History Graph

Search for Another Location

Airport or City:

Trip Planner

Search our weather history database for the weather conditions in past years. The results will help you decide how hot, cold, wet, or windy it might be!

Date:

Astronomy

Mar. 11, 2014 Rise Set
Actual Time 7:49 AM CDT 7:28 PM CDT
Civil Twilight 7:18 AM CDT 7:59 PM CDT
Nautical Twilight 6:43 AM CDT 8:35 PM CDT
Astronomical Twilight 6:06 AM CDT 9:11 PM CDT
Moon 2:50 PM CDT (3/11) 5:00 AM CDT (3/11)
Length of Visible Light 12h 40m
Length of Day
11h 38m
Waxing Gibbous, 78% of the Moon is Illuminated
Mar 11
Waxing Gibbous
Mar 16
Full
Mar 23
Last Quarter
Mar 30
New
Apr 7
First Quarter

Hourly Weather History & Observations

Time (CDT) Temp. Windchill Dew Point Humidity Pressure Visibility Wind Dir Wind Speed Gust Speed Precip Events Conditions
12:53 AM 33.1 °F 26.9 °F 30.0 °F 89% 29.76 in 10.0 mi NW 6.9 mph - N/A   Clear
1:53 AM 33.1 °F 26.1 °F 30.0 °F 89% 29.77 in 10.0 mi NW 8.1 mph - N/A   Clear
2:53 AM 32.0 °F 26.4 °F 28.0 °F 85% 29.79 in 10.0 mi NNW 5.8 mph - N/A   Clear
3:53 AM 32.0 °F 24.8 °F 28.0 °F 85% 29.81 in 10.0 mi NW 8.1 mph - N/A   Clear
4:53 AM 30.0 °F 20.5 °F 27.0 °F 88% 29.84 in 10.0 mi North 11.5 mph - N/A   Clear
5:53 AM 28.0 °F 16.5 °F 25.0 °F 88% 29.88 in 10.0 mi North 15.0 mph - N/A   Overcast
6:53 AM 26.1 °F 14.0 °F 19.9 °F 78% 29.93 in 10.0 mi North 15.0 mph - N/A   Overcast
7:53 AM 24.1 °F 13.1 °F 19.0 °F 81% 29.97 in 10.0 mi North 11.5 mph - N/A   Overcast
8:53 AM 23.0 °F 11.7 °F 17.1 °F 78% 30.01 in 10.0 mi North 11.5 mph - N/A   Overcast
9:53 AM 24.1 °F 11.5 °F 17.1 °F 75% 30.04 in 10.0 mi North 15.0 mph - N/A   Scattered Clouds
10:53 AM 25.0 °F 12.2 °F 18.0 °F 75% 30.06 in 10.0 mi North 16.1 mph - N/A   Scattered Clouds
11:53 AM 26.1 °F 13.1 °F 17.1 °F 69% 30.10 in 10.0 mi North 17.3 mph - N/A   Scattered Clouds
12:53 PM 26.1 °F 13.6 °F 17.1 °F 69% 30.09 in 10.0 mi North 16.1 mph - N/A   Overcast
1:53 PM 27.0 °F 13.2 °F 19.0 °F 72% 30.13 in 10.0 mi NNW 20.7 mph - N/A   Mostly Cloudy
2:53 PM 25.0 °F 10.9 °F 17.1 °F 72% 30.14 in 10.0 mi North 19.6 mph - N/A   Overcast
3:53 PM 24.1 °F 9.8 °F 17.1 °F 75% 30.15 in 8.0 mi North 19.6 mph - 0.00 in   Overcast
4:26 PM 23.0 °F 9.6 °F 17.6 °F 80% 30.11 in 6.0 mi North 16.1 mph - 0.00 in Snow Light Snow
4:53 PM 21.9 °F 6.9 °F 16.0 °F 78% 30.17 in 9.0 mi North 19.6 mph - 0.00 in Snow Light Snow
5:23 PM 21.2 °F 6.8 °F 15.8 °F 80% 30.12 in 9.0 mi North 17.3 mph - 0.00 in   Overcast
5:53 PM 21.0 °F 6.6 °F 15.1 °F 78% 30.17 in 10.0 mi North 17.3 mph - 0.00 in   Overcast
6:53 PM 19.9 °F 5.7 °F 14.0 °F 78% 30.20 in 10.0 mi North 16.1 mph - N/A   Overcast
7:53 PM 18.0 °F 4.2 °F 12.0 °F 78% 30.22 in 10.0 mi North 13.8 mph - N/A   Overcast
8:53 PM 17.1 °F 2.0 °F 10.0 °F 74% 30.22 in 10.0 mi North 16.1 mph - N/A   Overcast
9:53 PM 16.0 °F 2.3 °F 8.1 °F 71% 30.23 in 10.0 mi North 12.7 mph - N/A   Overcast
10:53 PM 16.0 °F 6.3 °F 9.0 °F 74% 30.22 in 10.0 mi NNE 6.9 mph - N/A   Overcast
11:53 PM 14.0 °F 5.1 °F 8.1 °F 77% 30.22 in 10.0 mi NNE 5.8 mph - N/A   Overcast